Location: Mahannah Oil Field
(37.4664°N, 96.6003°W)
Time: 15:19:26
(UTC+00:00)

Transit 2A - All Passes

Search period start: 25 January 2021 00:00
Search period end: 04 February 2021 00:00
Orbit: 599 x 960 km, 66.7° (Epoch: 25 January)

Date Brightness Start Highest point End Pass type
(mag) Time Alt. Az. Time Alt. Az. Time Alt. Az.
25 Jan - 08:33:29 10° SSE 08:38:09 24° ESE 08:42:32 10° ENE night (unlit)
25 Jan - 10:15:22 10° SW 10:21:06 48° WNW 10:26:21 10° NNE visible
25 Jan - 17:24:33 10° NE 17:25:11 10° NE 17:25:49 10° NE daylight
25 Jan - 19:04:35 10° NNW 19:09:05 88° WSW 19:13:23 10° SSE daylight
26 Jan - 08:00:43 10° SE 08:04:08 16° ESE 08:07:26 10° ENE night (unlit)
26 Jan - 09:40:56 10° SW 09:46:53 70° WNW 09:52:19 10° NNE visible
26 Jan - 11:29:04 10° WNW 11:30:53 11° NW 11:32:39 10° NNW visible
26 Jan - 18:30:29 10° NNW 18:34:54 57° ENE 18:39:09 10° SE daylight
26 Jan - 20:16:14 10° W 20:17:23 11° WSW 20:18:32 10° WSW daylight
27 Jan - 09:06:44 10° SSW 09:12:43 81° ESE 09:18:11 10° NNE night (unlit)
27 Jan - 10:52:57 10° W 10:56:25 16° NW 10:59:43 10° N visible
27 Jan - 17:56:31 10° NNW 18:00:40 35° NE 18:04:39 10° ESE daylight
27 Jan - 19:40:27 10° WNW 19:43:27 18° WSW 19:46:24 10° SSW daylight
28 Jan - 08:32:45 10° S 08:38:35 55° ESE 08:43:55 10° NE night (unlit)
28 Jan - 10:17:34 10° WSW 10:22:01 22° NW 10:26:11 10° N visible
28 Jan - 17:22:43 10° N 17:26:21 24° NE 17:29:52 10° ESE daylight
28 Jan - 19:05:38 10° NW 19:09:28 29° WSW 19:13:11 10° S daylight
29 Jan - 07:59:03 10° S 08:04:29 37° ESE 08:09:31 10° NE night (unlit)
29 Jan - 09:42:33 10° WSW 09:47:41 31° NW 09:52:26 10° N night (unlit)
29 Jan - 16:49:09 10° N 16:51:59 16° NE 16:54:43 10° E daylight
29 Jan - 18:31:09 10° NW 18:35:25 48° WSW 18:39:33 10° S daylight
30 Jan - 07:25:40 10° SSE 07:30:26 25° ESE 07:34:53 10° NE night (unlit)
30 Jan - 09:07:49 10° SW 09:13:25 44° WNW 09:18:33 10° NNE night (unlit)
30 Jan - 16:16:16 10° NNE 16:17:31 11° NE 16:18:44 10° ENE daylight
30 Jan - 17:56:53 10° NNW 18:01:19 80° WSW 18:05:37 10° SSE daylight
31 Jan - 06:52:45 10° SE 06:56:25 17° ESE 06:59:54 10° ENE night (unlit)
31 Jan - 08:33:20 10° SW 08:39:13 65° WNW 08:44:33 10° NNE night (unlit)
31 Jan - 10:22:19 10° NW 10:23:14 10° NW 10:24:10 10° NNW night (unlit)
31 Jan - 17:22:44 10° NNW 17:27:09 62° ENE 17:31:25 10° SE daylight
01 Feb - 06:21:11 10° ESE 06:22:27 11° ESE 06:23:41 10° E night (unlit)
01 Feb - 07:59:05 10° SSW 08:05:01 87° ESE 08:10:26 10° NNE night (unlit)
01 Feb - 09:45:40 10° W 09:48:45 15° NW 09:51:44 10° NNW night (unlit)
01 Feb - 16:48:45 10° NNW 16:52:55 39° ENE 16:56:57 10° SE daylight
01 Feb - 18:32:54 10° WNW 18:35:39 16° WSW 18:38:23 10° SW daylight
02 Feb - 07:25:04 10° SSW 07:30:53 60° ESE 07:36:12 10° NE night (unlit)
02 Feb - 09:10:09 10° W 09:14:21 21° NW 09:18:18 10° N night (unlit)
02 Feb - 16:14:54 10° N 16:18:38 25° NE 16:22:14 10° ESE daylight
02 Feb - 17:57:59 10° NW 18:01:40 26° WSW 18:05:17 10° SSW daylight
03 Feb - 06:51:17 10° S 06:56:47 40° ESE 07:01:49 10° NE night (unlit)
03 Feb - 08:35:03 10° WSW 08:40:01 29° NW 08:44:36 10° N night (unlit)
03 Feb - 15:41:17 10° N 15:44:16 17° NE 15:47:10 10° E daylight
03 Feb - 17:23:28 10° NW 17:27:38 43° WSW 17:31:43 10° S daylight
